Temperature
15 16 16 15 15 14 13 14 14 15 16 17 18 18 18 18 17 15 13 11 9 7 5 3 2 1 1 1 1 1 0 -1 -1 -2 -3 -3 -4 -4 -5 -6 -7 -7 -8 -9
13 15 15 13 14 14 14 14 14 15 15 16 18 18 18 17 16 15 14 12 10 8 5 4 2 1 1 1 1 1 0 -1 -1 -2 -2 -3 -4 -4 -5 -5 -6 -7 -8 -9
12 15 13 12 14 13 13 13 13 13 14 16 16 16 17 17 16 15 14 13 11 9 7 5 3 2 2 2 1 1 0 -1 -1 -2 -2 -3 -3 -4 -4 -5 -6 -7 -8 -9
11 13 11 15 16 15 14 14 13 13 13 14 15 16 16 17 16 16 15 14 12 11 8 6 4 2 2 2 1 1 0 -1 -1 -2 -2 -3 -3 -4 -4 -5 -6 -7 -7 -8
10 10 12 15 15 14 13 12 13 13 13 14 16 14 15 18 17 16 15 14 13 11 9 6 4 3 2 2 1 1 0 -0 -1 -2 -2 -3 -3 -3 -4 -4 -5 -6 -7 -8
9 9 10 15 14 14 13 12 15 14 13 14 13 11 13 17 17 16 15 14 12 11 9 6 5 3 2 2 2 1 1 -0 -1 -2 -2 -2 -3 -3 -4 -4 -5 -6 -6 -7
8 8 11 14 12 12 13 15 18 18 17 16 12 14 17 17 16 15 14 13 11 10 9 7 6 4 3 2 2 2 1 -0 -1 -2 -2 -2 -3 -3 -4 -4 -5 -5 -6 -7
8 8 10 12 10 12 14 17 18 19 18 18 17 17 17 16 15 15 14 12 11 9 8 7 5 4 3 3 3 1 0 -0 -1 -2 -2 -2 -3 -3 -4 -4 -4 -5 -6 -6
11 13 15 14 14 16 16 16 17 17 17 16 16 16 16 16 16 15 14 12 10 9 7 6 5 5 4 3 2 1 0 -0 -1 -2 -2 -2 -3 -3 -4 -4 -5 -5 -6 -6
11 12 14 15 15 16 16 16 17 17 17 16 16 16 16 16 15 14 13 12 10 8 7 6 5 5 4 3 2 1 0 -0 -1 -2 -2 -3 -3 -3 -4 -4 -5 -5 -6 -6
10 12 14 16 16 17 17 17 17 17 17 16 16 15 15 15 15 14 13 12 10 8 8 7 5 4 4 2 2 1 0 -1 -1 -2 -2 -3 -3 -3 -4 -4 -5 -5 -6 -7
13 14 13 15 16 16 16 16 16 16 16 15 15 15 14 14 14 13 12 11 10 9 7 6 4 4 3 2 2 1 0 -0 -1 -2 -2 -3 -3 -3 -4 -4 -5 -5 -6 -7
14 15 15 15 15 15 15 15 15 15 14 14 14 13 13 13 12 12 11 10 10 9 8 5 4 3 3 2 2 1 1 -0 -1 -1 -2 -2 -3 -3 -4 -4 -5 -5 -6 -6
13 13 14 14 14 14 14 14 14 14 13 13 12 12 12 11 11 11 10 10 9 8 6 5 3 3 3 2 2 1 1 -0 -1 -1 -2 -2 -3 -3 -4 -4 -4 -5 -6 -6
12 12 13 13 13 13 13 13 12 12 11 11 11 11 10 10 10 10 10 9 8 7 6 4 3 2 2 2 2 1 1 -0 -1 -1 -2 -2 -3 -3 -4 -4 -5 -5 -5 -6
11 11 11 12 12 11 11 11 10 10 10 10 10 9 9 9 9 9 9 9 8 7 6 5 4 2 1 2 2 1 1 0 -0 -1 -2 -2 -3 -3 -4 -4 -5 -5 -5 -6
10 10 10 9 9 9 9 9 9 8 8 8 8 8 8 8 9 9 9 8 7 6 6 4 3 2 1 1 1 1 1 -0 -1 -1 -2 -2 -3 -3 -4 -4 -4 -5 -5 -6
8 8 8 8 8 7 7 7 7 7 7 7 7 7 7 7 7 8 7 6 6 5 5 3 2 0 -0 0 0 0 0 0 -1 -1 -2 -2 -3 -3 -4 -4 -4 -5 -5 -6
7 7 7 7 6 6 6 6 6 6 6 6 6 6 6 7 7 6 6 5 5 5 4 2 1 -0 -1 -1 -0 -0 -0 -0 -0 -1 -1 -2 -3 -3 -4 -4 -4 -5 -5 -6
6 6 5 5 5 5 5 5 5 5 5 5 5 5 6 6 6 5 5 5 5 4 3 1 -0 -1 -2 -2 -1 -1 -1 -0 -0 -1 -1 -2 -2 -3 -3 -4 -4 -5 -5 -6
5 5 4 4 4 4 4 4 4 4 4 4 5 5 5 5 5 5 4 5 5 3 2 0 -1 -2 -2 -2 -3 -2 -1 -1 -1 -1 -1 -2 -2 -3 -3 -4 -4 -5 -5 -6
4 4 4 3 3 3 3 3 3 3 3 3 4 4 4 4 5 5 5 4 3 2 1 -1 -2 -3 -3 -3 -4 -3 -2 -1 -1 -1 -1 -1 -2 -2 -3 -4 -4 -5 -5 -6
3 3 3 3 2 2 2 2 2 2 2 2 3 3 3 4 4 4 4 4 3 1 -0 -1 -2 -4 -4 -5 -4 -4 -3 -2 -1 -1 -1 -1 -1 -2 -3 -3 -4 -5 -5 -6
3 2 2 2 1 1 1 1 1 1 1 1 2 2 2 3 3 4 3 2 1 0 -1 -2 -4 -5 -6 -6 -5 -4 -3 -2 -1 -1 -1 -1 -1 -2 -3 -3 -4 -4 -5 -6
1 1 1 1 0 0 0 0 0 0 1 1 1 2 2 2 2 2 2 2 1 -1 -2 -3 -5 -5 -6 -6 -6 -5 -4 -2 -1 -0 -0 -1 -1 -2 -3 -3 -4 -4 -5 -6
0 -0 -0 -0 -0 -0 -0 -0 -0 -0 0 0 1 1 1 2 2 2 1 1 0 -1 -3 -4 -5 -6 -6 -6 -6 -5 -4 -3 -2 -1 -1 -1 -1 -2 -2 -3 -4 -4 -5 -5
-1 -1 -1 -1 -1 -1 -1 -1 -1 -1 -1 -0 0 0 1 1 1 1 1 0 -1 -2 -3 -4 -5 -6 -6 -6 -6 -5 -4 -3 -2 -1 -1 -1 -1 -2 -2 -3 -3 -4 -5 -5
Wind_Speed
11 11 8 10 11 12 16 14 12 12 14 15 9 7 5 2 6 9 10 12 14 14 13 13 13 12 12 11 10 9 8 8 7 5 4 5 6 8 8 8 10 8 9 9
7 10 8 10 14 16 18 18 20 19 21 17 11 8 6 6 7 10 11 13 14 15 15 15 15 14 12 11 10 10 9 8 7 5 6 6 7 8 9 9 9 9 8 9
6 2 5 10 15 17 11 12 11 18 16 10 9 9 8 8 9 10 12 13 15 17 17 16 16 14 14 12 10 10 9 8 7 6 6 7 8 8 8 9 9 9 8 9
4 4 11 11 4 7 12 13 14 14 13 11 10 7 7 9 11 12 11 12 14 15 15 13 13 13 12 11 11 11 9 9 8 7 7 7 7 8 9 9 8 8 8 9
3 5 10 12 8 6 8 9 13 19 19 17 9 7 9 12 13 13 12 11 12 13 13 13 14 14 13 13 12 11 11 10 9 8 8 7 8 9 9 8 8 7 8 9
5 6 9 10 2 3 3 8 11 14 16 14 4 3 8 6 7 9 8 8 9 11 13 14 14 15 15 14 14 14 13 11 9 9 8 8 9 8 7 7 7 7 8 8
8 9 12 10 6 7 5 9 6 11 12 10 10 12 8 5 7 8 8 8 10 12 14 15 15 16 16 16 16 14 12 10 10 9 9 8 8 6 7 7 7 7 8 8
9 9 14 8 10 11 12 4 4 6 9 10 11 12 11 10 10 10 10 9 11 12 12 13 16 18 18 17 14 12 12 11 10 9 8 7 6 6 6 6 6 6 6 7
14 15 7 11 13 9 5 6 7 6 8 9 11 12 13 12 11 11 11 11 11 12 12 13 16 19 19 16 14 14 13 11 9 9 8 7 7 6 5 4 4 5 5 6
9 12 11 9 11 12 13 14 14 13 13 11 13 15 15 13 11 10 11 12 12 13 15 16 17 18 16 14 15 15 14 12 10 9 8 7 6 5 5 4 4 4 5 6
10 9 9 12 13 17 17 16 15 15 14 14 14 16 15 14 13 11 11 11 12 16 18 18 17 17 14 15 16 15 14 12 10 9 8 7 6 6 6 5 5 5 4 4
16 10 9 11 9 10 12 14 15 15 15 13 12 15 15 14 12 10 10 11 13 17 17 16 17 17 16 16 18 17 14 13 10 8 7 6 5 5 8 8 10 9 8 7
21 18 16 18 16 14 14 15 15 14 15 15 12 12 13 13 11 10 10 13 17 18 17 15 16 18 17 17 18 18 15 13 10 9 8 8 6 5 4 5 7 8 8 9
17 17 19 17 17 17 16 16 15 14 12 12 12 11 11 12 11 10 12 14 15 14 15 16 17 19 19 18 19 18 15 16 13 10 9 8 7 6 5 4 3 3 5 6
18 17 19 17 16 15 13 12 13 14 13 12 11 11 12 13 14 14 13 11 11 13 15 16 18 19 19 20 20 19 16 12 11 10 9 8 7 6 5 5 4 4 3 3
14 14 14 15 15 13 12 11 12 12 12 12 11 12 12 13 14 13 11 10 12 17 18 19 20 18 19 21 20 17 15 20 16 11 10 9 8 7 6 5 5 4 3 2
12 11 10 10 10 10 10 10 10 11 12 13 14 13 13 12 11 12 11 11 14 15 16 18 17 15 19 21 20 15 14 16 21 13 10 10 9 8 7 6 5 4 4 3
4 5 6 7 8 9 10 10 11 12 12 13 13 13 12 12 13 14 12 10 11 13 14 13 13 15 19 20 17 14 14 14 13 12 11 10 9 8 7 7 6 6 4 3
8 8 9 9 9 8 9 10 12 12 12 12 13 13 13 13 13 13 10 9 12 16 12 13 22 20 19 23 22 13 14 15 14 12 11 14 12 9 8 7 7 6 5 4
7 7 8 9 9 9 10 11 11 12 12 12 13 14 15 14 12 11 10 12 13 10 9 14 18 16 18 21 25 14 16 16 16 14 12 12 11 10 9 8 8 7 6 5
7 8 9 10 11 11 11 12 13 14 13 13 13 15 16 15 12 10 10 13 10 9 11 19 16 14 17 20 25 15 16 16 16 15 14 13 12 11 10 9 9 8 7 5
8 9 11 12 13 14 13 12 13 15 15 14 14 14 14 15 13 11 11 11 8 11 11 12 12 18 23 25 17 16 17 16 15 14 13 13 12 12 11 10 9 8 7 6
10 11 13 14 15 16 16 14 14 14 15 15 15 14 14 13 10 10 12 7 6 13 11 10 17 26 30 22 16 17 17 17 16 15 14 13 13 12 11 11 10 9 8 7
12 13 13 14 14 15 17 17 15 13 14 15 14 14 13 12 10 9 9 9 11 13 10 14 24 28 30 16 15 16 16 16 15 14 14 13 12 11 11 10 10 9 8 9
12 13 14 14 15 14 16 16 15 14 14 13 13 12 10 9 9 9 7 7 11 13 9 15 24 27 21 13 15 15 15 15 15 14 14 14 13 12 11 11 10 10 9 8
13 14 14 14 14 14 13 13 13 12 12 12 12 10 8 7 8 8 7 8 10 12 9 9 13 19 15 14 15 15 14 15 16 14 14 14 14 13 12 11 12 10 9 9
14 13 13 13 11 11 11 12 13 14 12 13 14 11 8 7 7 8 8 8 7 8 7 8 10 12 13 14 14 14 13 13 13 13 14 13 13 12 12 13 11 10 9 9
Wind_Direction
270 279 251 241 239 211 215 222 231 246 250 258 259 283 297 248 190 191 187 189 193 193 190 187 187 188 187 184 177 176 182 199 217 231 261 278 281 281 281 280 287 282 284 289
275 258 254 263 252 237 231 234 243 259 270 270 282 278 267 260 228 216 210 203 200 196 193 192 191 189 184 182 175 171 183 197 205 220 244 258 268 274 277 278 279 280 281 286
268 230 333 269 244 226 220 218 211 238 249 273 270 255 250 254 248 234 224 209 201 200 199 195 191 185 184 180 168 172 184 193 200 213 237 253 269 277 279 282 280 279 280 282
273 305 253 247 255 234 222 235 221 239 261 273 269 286 280 261 251 248 233 213 203 198 196 189 180 176 173 169 170 176 185 194 199 209 230 247 261 271 276 276 276 279 281 282
233 252 270 278 251 205 214 264 228 232 250 259 270 321 286 256 235 233 228 210 200 191 184 178 176 172 168 172 174 180 191 196 198 204 220 238 252 261 268 273 280 282 283 286
209 226 248 255 178 115 132 276 243 211 231 245 190 279 271 248 217 224 219 196 181 173 172 177 176 168 173 180 182 192 196 194 193 198 212 230 244 256 266 276 281 288 292 292
220 232 256 259 148 128 184 249 220 196 216 218 198 224 242 216 222 221 214 195 174 171 181 183 173 171 182 187 195 194 185 183 189 197 211 227 242 256 271 278 287 294 298 300
194 215 250 207 154 192 223 276 243 220 221 224 231 249 256 245 238 224 213 196 181 182 187 180 175 179 189 195 191 176 175 180 188 198 212 225 235 253 262 275 292 298 303 307
201 220 247 176 204 230 281 283 272 262 258 249 256 262 263 259 247 230 214 203 191 188 188 185 185 187 195 192 174 170 173 182 189 198 207 213 225 241 256 269 278 290 301 308
240 249 255 236 237 254 257 256 261 262 264 260 258 264 268 266 257 237 217 204 194 190 197 198 194 194 195 179 170 170 178 184 189 195 203 210 220 225 229 243 261 278 295 306
254 264 283 267 245 248 256 260 264 265 260 255 257 264 264 266 260 241 222 203 195 202 207 205 196 195 188 175 170 174 180 185 188 192 194 206 217 219 221 218 227 247 251 272
259 257 254 264 262 257 260 266 268 271 277 270 252 260 266 266 261 244 223 203 203 209 211 205 195 194 188 177 175 176 182 187 188 188 192 198 207 233 250 240 250 263 271 281
265 271 269 273 276 276 273 275 276 274 274 280 274 261 263 266 262 244 224 209 210 213 211 203 196 194 189 181 178 181 183 183 184 186 189 193 196 204 231 255 254 258 265 283
274 280 278 275 275 275 273 275 280 283 282 279 281 278 271 270 267 250 235 224 216 209 206 202 199 197 189 183 183 184 182 184 183 185 185 186 190 195 201 211 239 269 275 286
268 269 273 278 279 280 282 288 294 295 297 293 285 279 274 270 266 258 247 227 208 205 206 204 204 199 185 184 186 185 182 182 181 178 181 183 184 188 195 204 216 235 255 283
278 281 283 284 286 290 299 304 302 301 302 300 295 286 277 270 267 264 250 217 207 214 210 206 208 197 183 183 185 186 186 185 179 177 179 181 183 187 194 201 209 220 232 231
281 287 292 297 304 310 315 315 310 308 309 306 299 294 289 283 277 269 255 229 220 222 214 209 204 187 181 184 184 185 182 185 182 180 181 182 184 189 192 193 199 207 217 220
344 345 345 339 335 330 328 325 317 312 304 298 298 298 295 286 277 272 262 239 227 229 221 208 193 184 182 182 184 182 179 179 179 179 180 181 184 187 188 191 195 201 211 225
17 7 356 347 338 329 320 313 307 302 299 300 301 299 292 283 276 274 264 236 228 235 223 199 197 189 185 185 182 181 179 177 178 179 179 185 187 186 187 190 193 195 195 198
355 345 335 326 323 318 310 305 303 301 300 302 301 299 296 290 284 278 264 247 240 233 201 194 198 192 185 186 185 182 180 179 178 178 179 182 184 186 188 190 190 191 192 192
329 324 322 317 311 307 304 303 303 300 298 296 294 292 291 290 285 276 268 268 253 210 194 200 198 192 186 187 188 185 182 180 178 178 179 182 184 186 188 189 190 192 192 190
314 315 313 308 304 302 301 298 295 293 292 289 287 286 287 289 286 276 258 256 254 209 197 200 196 194 190 189 189 186 185 182 179 177 178 180 182 185 187 186 188 190 187 182
304 303 302 300 297 296 295 292 288 286 285 284 283 282 281 279 277 276 280 257 228 219 207 201 199 197 194 191 189 187 185 182 180 179 179 180 182 183 184 184 185 183 179 179
297 295 291 289 289 291 292 289 283 280 278 278 275 270 270 278 280 263 257 260 237 229 214 206 204 201 196 190 188 188 186 184 181 178 177 177 178 179 180 180 179 178 178 177
289 288 288 288 288 287 285 285 284 281 279 279 274 266 258 252 260 274 267 250 242 238 221 211 208 204 196 190 189 188 187 185 180 176 175 175 177 178 179 178 178 177 178 179
288 287 285 280 280 284 285 285 285 283 280 281 281 274 264 257 255 262 263 250 237 237 221 202 201 203 195 189 188 187 184 184 182 178 176 174 175 175 177 177 174 176 176 176
284 283 285 286 283 278 279 280 282 282 279 276 279 277 268 262 258 256 256 251 240 232 215 198 194 195 190 186 186 184 182 181 178 176 174 174 175 176 177 174 175 173 171 171
Height
1540 1536 1535 1535 1533 1534 1535 1529 1528 1513 1504 1492 1489 1489 1488 1488 1488 1488 1487 1486 1485 1485 1485 1486 1488 1489 1492 1494 1495 1497 1498 1498 1498 1497 1495 1493 1490 1487 1484 1480 1476 1472 1468 1464
1541 1532 1531 1532 1526 1524 1523 1519 1513 1507 1498 1484 1486 1485 1484 1484 1484 1483 1481 1480 1478 1478 1478 1478 1479 1482 1484 1487 1489 1491 1492 1492 1492 1492 1490 1488 1486 1483 1479 1476 1472 1468 1464 1460
1546 1531 1534 1532 1512 1511 1510 1502 1503 1504 1491 1483 1483 1481 1480 1480 1479 1477 1475 1473 1471 1470 1469 1470 1472 1474 1477 1480 1483 1484 1486 1487 1487 1486 1485 1484 1481 1479 1475 1472 1468 1464 1460 1456
1545 1537 1543 1509 1496 1494 1496 1492 1491 1487 1482 1480 1479 1478 1476 1475 1473 1470 1468 1466 1464 1463 1462 1463 1465 1468 1471 1474 1476 1478 1480 1481 1481 1481 1480 1479 1477 1475 1472 1468 1464 1460 1456 1452
1546 1543 1526 1503 1491 1491 1493 1489 1480 1480 1477 1475 1474 1474 1470 1468 1466 1464 1462 1460 1458 1456 1456 1457 1458 1461 1464 1466 1469 1471 1473 1474 1476 1476 1475 1474 1473 1470 1467 1464 1460 1457 1453 1448
1542 1544 1532 1498 1489 1487 1491 1491 1469 1469 1470 1469 1472 1477 1467 1462 1460 1458 1456 1453 1451 1450 1449 1450 1451 1454 1456 1458 1461 1463 1466 1468 1470 1470 1470 1469 1468 1466 1464 1461 1457 1454 1450 1446
1539 1535 1513 1488 1487 1489 1496 1480 1463 1462 1463 1464 1465 1464 1459 1456 1454 1452 1449 1447 1444 1443 1441 1442 1443 1445 1448 1450 1453 1457 1460 1462 1463 1464 1465 1464 1463 1462 1460 1457 1454 1451 1447 1443
1526 1528 1509 1479 1483 1483 1472 1462 1461 1459 1459 1459 1458 1456 1454 1451 1448 1445 1442 1440 1437 1435 1434 1435 1435 1437 1439 1441 1445 1450 1453 1455 1457 1458 1459 1459 1459 1458 1456 1454 1451 1447 1444 1440
1496 1487 1472 1469 1467 1463 1462 1460 1458 1457 1456 1455 1452 1449 1447 1444 1441 1438 1435 1432 1430 1428 1427 1427 1427 1428 1430 1434 1438 1442 1445 1448 1450 1452 1453 1454 1454 1453 1452 1450 1447 1444 1441 1436
1480 1470 1466 1465 1462 1461 1459 1457 1453 1451 1450 1448 1446 1442 1440 1437 1433 1430 1427 1425 1422 1420 1419 1417 1417 1419 1423 1427 1431 1435 1438 1441 1444 1445 1447 1448 1448 1448 1447 1446 1444 1441 1438 1434
1472 1464 1463 1458 1456 1454 1452 1450 1447 1445 1444 1442 1439 1436 1433 1429 1425 1422 1419 1416 1414 1411 1409 1408 1409 1411 1415 1419 1423 1427 1431 1434 1437 1439 1441 1442 1443 1443 1443 1442 1440 1438 1435 1431
1462 1459 1459 1452 1451 1451 1448 1445 1442 1439 1435 1434 1433 1429 1425 1421 1417 1414 1411 1408 1405 1402 1400 1400 1401 1403 1406 1410 1414 1418 1422 1426 1429 1432 1434 1436 1438 1439 1438 1438 1437 1435 1433 1430
1454 1453 1451 1445 1444 1443 1441 1437 1435 1432 1429 1425 1423 1421 1417 1412 1409 1406 1402 1399 1395 1393 1392 1392 1392 1394 1397 1400 1405 1409 1413 1418 1422 1425 1428 1430 1432 1433 1434 1434 1433 1432 1430 1427
1449 1447 1441 1438 1435 1434 1432 1429 1426 1423 1421 1419 1415 1412 1409 1404 1400 1397 1393 1390 1387 1384 1383 1382 1383 1383 1387 1392 1396 1401 1405 1410 1414 1418 1421 1424 1426 1428 1429 1429 1429 1428 1427 1425
1440 1438 1434 1430 1427 1425 1423 1421 1418 1414 1412 1410 1407 1404 1400 1395 1391 1387 1384 1381 1377 1375 1373 1373 1373 1373 1377 1382 1387 1392 1397 1401 1406 1411 1414 1418 1420 1422 1423 1424 1425 1424 1424 1422
1430 1428 1426 1423 1420 1418 1416 1414 1412 1408 1405 1402 1399 1395 1391 1386 1381 1377 1373 1370 1367 1364 1362 1362 1362 1364 1368 1372 1377 1383 1389 1394 1398 1403 1407 1411 1414 1416 1418 1419 1420 1420 1420 1419
1422 1420 1418 1416 1414 1412 1411 1409 1407 1403 1399 1395 1391 1386 1382 1377 1372 1367 1364 1361 1357 1355 1353 1352 1352 1356 1359 1363 1368 1374 1380 1386 1391 1396 1400 1404 1407 1410 1413 1414 1415 1416 1416 1415
1417 1416 1415 1413 1410 1408 1406 1404 1401 1397 1393 1388 1383 1378 1373 1368 1363 1358 1354 1351 1347 1344 1342 1343 1345 1348 1349 1354 1360 1366 1371 1377 1382 1387 1392 1397 1401 1404 1407 1409 1411 1412 1412 1412
1413 1412 1411 1409 1406 1404 1401 1398 1394 1390 1386 1381 1375 1370 1365 1360 1355 1350 1346 1341 1337 1333 1332 1334 1336 1338 1341 1344 1351 1357 1363 1369 1375 1380 1386 1391 1395 1398 1401 1404 1406 1407 1408 1408
1410 1409 1407 1404 1402 1399 1395 1392 1387 1383 1379 1374 1368 1362 1356 1352 1347 1342 1337 1332 1328 1326 1325 1326 1327 1328 1331 1337 1343 1348 1354 1360 1366 1372 1378 1383 1387 1391 1395 1398 1401 1402 1403 1404
1407 1405 1402 1398 1395 1392 1389 1385 1380 1374 1370 1366 1360 1354 1348 1343 1339 1334 1328 1322 1319 1318 1316 1316 1317 1319 1323 1328 1335 1339 1346 1352 1358 1364 1370 1376 1381 1385 1389 1392 1395 1397 1399 1400
1403 1400 1396 1393 1388 1383 1380 1376 1371 1365 1360 1355 1351 1346 1340 1335 1330 1325 1319 1315 1311 1309 1307 1307 1308 1311 1314 1319 1325 1330 1337 1343 1349 1356 1363 1369 1374 1378 1382 1386 1389 1392 1394 1395
1397 1393 1389 1385 1380 1374 1369 1365 1361 1356 1351 1346 1342 1337 1332 1327 1322 1317 1310 1307 1304 1301 1299 1298 1300 1303 1308 1312 1316 1322 1328 1335 1341 1348 1355 1361 1367 1372 1377 1380 1384 1387 1389 1391
1388 1384 1380 1375 1370 1364 1358 1353 1349 1345 1341 1336 1332 1328 1324 1318 1313 1309 1304 1299 1296 1293 1291 1291 1294 1297 1301 1304 1309 1315 1321 1327 1334 1341 1348 1355 1361 1366 1371 1375 1378 1381 1384 1386
1379 1374 1370 1365 1360 1354 1348 1343 1338 1334 1330 1325 1321 1319 1315 1311 1306 1300 1296 1292 1289 1287 1285 1285 1287 1291 1295 1298 1302 1307 1314 1320 1327 1334 1341 1348 1354 1360 1365 1369 1373 1376 1379 1381
1369 1364 1359 1355 1350 1345 1339 1334 1329 1324 1320 1315 1311 1308 1305 1302 1297 1292 1288 1285 1281 1280 1279 1279 1281 1284 1288 1292 1296 1302 1308 1315 1322 1329 1336 1342 1348 1354 1359 1363 1367 1371 1374 1377
1357 1352 1347 1342 1338 1335 1330 1326 1321 1315 1311 1307 1302 1298 1296 1292 1288 1284 1280 1277 1274 1272 1272 1273 1274 1278 1282 1286 1291 1296 1303 1310 1317 1323 1330 1337 1343 1348 1353 1358 1362 1366 1369 1372